Flag for Germany Weather past 2 weeks in Ludwigsfelde, Brandenburg, Germany

Now
39 °F

Overcast.


Feels Like: 31 °F
Forecast: 35 / 42 °F
Wind: 12 mph from West

Location: Potsdam

Current Time: Apr 1, 2015 at 3:40:42 AM

Latest Report: Apr 1, 2015 at 3:00 AM


Visibility: 25 mi

Pressure: 29.50 "Hg

Humidity: 83%

Dew point: 34 °F

Location of LudwigsfeldeLocation

Historic Weather in Ludwigsfelde — Graph

°F

Ludwigsfelde temperature yesterday

Maximum temperature yesterday: 51 °F (at 1:00 PM)
Minimum temperature yesterday: 33 °F (at 8:00 AM)
Average temperature yesterday: 42 °F

Past Weeks' High & Low Weather Summary

 TemperatureHumidityPressure
High63 °F (Mar 17, 3:00 PM)100% (Mar 31, 7:00 AM)30.42 "Hg (Mar 31, 7:00 AM)
Low29 °F (Mar 23, 6:00 AM)20% (Mar 18, 4:00 PM)29.06 "Hg (Mar 30, 12:00 AM)
Average44 °F70%29.93 "Hg
* Reported Mar 17 1:00 AM — Apr 1 2:00 AM, Ludwigsfelde, Weather by CustomWeather, © 2015

Note: Actual official high and low records may vary slightly from our data, if they occured in-between our weather recording intervals... More about our weather records

Advertising

Ludwigsfelde weather history for previous 24 hours

 ConditionsComfort  
Time TempWeatherWind HumidityBarometerVisibility
2:00 AM
Wed, Apr 1
38 °FPassing clouds.12 mph85%29.47 "Hg28 mi
1:00 AM38 °FPassing clouds.14 mph85%29.44 "Hg28 mi
12:00 AM42 °FPassing clouds.15 mph70%29.41 "Hg25 mi
11:00 PM
Tue, Mar 31
43 °FPassing clouds.15 mph61%29.41 "Hg25 mi
10:00 PM44 °FPassing clouds.20 mph58%29.35 "Hg25 mi
9:00 PM44 °FOvercast.17 mph62%29.32 "Hg25 mi
8:00 PM45 °FOvercast.20 mph65%29.29 "Hg25 mi
7:00 PM45 °FOvercast.17 mph70%29.23 "Hg25 mi
6:00 PM46 °FSprinkles. Overcast.17 mph70%29.18 "Hg22 mi
5:00 PM47 °FSprinkles. Overcast.15 mph77%29.15 "Hg25 mi
4:00 PM49 °FSprinkles. Overcast.23 mph64%29.12 "Hg19 mi
3:00 PM50 °FSprinkles. Partly sunny.17 mph72%29.09 "Hg25 mi
2:00 PM51 °FOvercast.16 mph74%29.09 "Hg22 mi
1:00 PM51 °FPartly sunny.9 mph79%29.06 "Hg22 mi
12:00 PM48 °FOvercast.9 mph92%29.06 "Hg22 mi
11:00 AM44 °FPartly sunny.10 mph98%29.06 "Hg22 mi
10:00 AM36 °FLight rain. Low clouds.7 mph100%29.06 "Hg5 mi
9:00 AM34 °FLight rain. Low clouds.9 mph100%29.09 "Hg4 mi
8:00 AM33 °FSnow. Low clouds.8 mph100%29.18 "Hg1 mi
7:00 AM33 °FSnow. Low clouds.7 mph100%29.26 "Hg1 mi
6:00 AM36 °FLight rain. Overcast.5 mph94%29.38 "Hg10 mi
5:00 AM38 °FOvercast.6 mph77%29.47 "Hg19 mi
4:00 AM37 °FOvercast.6 mph78%29.54 "Hg19 mi
3:00 AM38 °FOvercast.6 mph79%29.62 "Hg19 mi
Weather by CustomWeather, © 2015

See weather overviewHow to use our weather pages